Hourly Data Report for April 21, 2018

CLYDE RIVER A
NUNAVUT
Current Station Operator: NAVCAN

70°29'09.000" N
68°31'01.000" W
26.50 m
2400804
71090
YCY

Download Data

Hourly Data (April 2018)
Hourly Data Report for April 21, 2018
TIME
LST
Temp Definition
°C
Dew Point Definition
°C
Rel Hum Definition
%
Precip. Amount Definition
mm

Wind Dir Definition
10's deg

Wind Spd Definition
km/h
Visibility Definition
km
Stn Press Definition
kPa
Hmdx Definition


Wind Chill Definition


Weather Definition


00:00 -16.8 -18.5 87 0.0 27 5 16.1 101.71   -21 LegendNANA
01:00 -15.4 -17.9 82 0.0 LegendMM 5 16.1 101.69   -19 LegendNANA
02:00 -16.0 -17.3 90 0.0 LegendMM 4 16.1 101.70   -19 LegendNANA
03:00 -16.0 -18.5 81 0.0 33 8 16.1 101.67   -22 LegendNANA
04:00 -10.0 -15.8 63 0.0 LegendMM 4 16.1 101.66   -12 LegendNANA
05:00 -9.5 -15.8 60 0.0 24 5 16.1 101.64   -12 LegendNANA
06:00 -12.9 -16.9 72 0.0 30 11 16.1 101.61   -19 LegendNANA
07:00 -12.4 -17.3 67 0.0 LegendMM 8 16.1 101.61   -17 LegendNANA
08:00 -12.4 -16.8 70 0.0   0 16.1 101.56     LegendNANA
09:00 -11.5 -15.3 74 0.0 1 8 16.1 101.51   -16 LegendNANA
10:00 -10.8 -14.2 76 0.0 35 9 16.1 101.48   -16 LegendNANA
11:00 -9.1 -12.4 77 0.0 1 4 16.1 101.43   -11 LegendNANA
12:00 -7.9 -11.6 75 0.0 LegendMM 4 16.1 101.36   -10 LegendNANA
13:00 -4.2 -9.7 66 0.0 LegendMM 5 16.1 101.28   -6 LegendNANA
14:00 -0.6 -5.8 68 0.0 20 26 16.1 101.23   -7 LegendNANA
15:00 -3.7 -7.2 77 0.0 16 15 16.1 101.18   -9 LegendNANA
16:00 -2.8 -7.6 70 0.0 13 26 16.1 101.13   -10 LegendNANA
17:00 -4.0 -8.4 72 0.0 15 28 16.1 101.07   -11 LegendNANA
18:00 -5.0 -9.2 73 0.0 13 21 16.1 101.01   -12 Snow
19:00 -2.8 -7.3 72 0.0 14 15 16.1 100.95   -8 LegendNANA
20:00 -2.7 -6.7 74 0.0 18 18 16.1 100.86   -8 LegendNANA
21:00 -3.9 -7.6 76 0.0 14 17 16.1 100.77   -10 LegendNANA
22:00 0.4 -4.3 71 0.0 22 24 16.1 100.62     LegendNANA
23:00 0.4 -4.4 70 0.0 16 8 16.1 100.57     LegendNANA

Notes on Data Quality.

Legend

  • E = Estimated
  • M = Missing
  • NA = Not Available*
  • [empty] = Indicates an unobserved value
Date modified: